Rochester, MN

3:09 AM CDT on September 26, 2017 (GMT -0500)
Rochester International

Weather History for KRST - March, 2014

Change the Weather History Date:

Monday, March 10, 2014

  Actual Average Record
Temperature  
Mean Temperature 41 °F 30 °F  
Max Temperature 46 °F 37 °F 63 °F (1977)
Min Temperature 36 °F 22 °F -15 °F (1948)
Degree Days  
Heating Degree Days 24 35  
Month to date heating degree days 506 374  
Since 1 July heating degree days 7231 6235  
Cooling Degree Days 0 0  
Month to date cooling degree days 0 0  
Year to date cooling degree days 0 0  
Moisture  
Dew Point 32 °F    
Average Humidity 72    
Maximum Humidity 82    
Minimum Humidity 62    
Precipitation  
Precipitation 0.00 in 0.05 in 1.37 in (1941)
Month to date precipitation 0.38 0.49  
Year to date precipitation 3.14 2.18  
Snow  
Snow 0.00 in 0.30 in 10.80 in (1956)
Month to date snowfall 5.5 3.4  
Since 1 July snowfall 53.3 43.3  
Snow Depth 15.00 in    
Sea Level Pressure  
Sea Level Pressure 29.70 in    
Wind  
Wind Speed 11 mph (West)    
Max Wind Speed 18 mph    
Max Gust Speed 23 mph    
Visibility 10 miles    
Events      
T = Trace of Precipitation, MM = Missing Value Source: NWS Daily Summary

Daily Weather History Graph

Daily Weather History Graph

Search for Another Location

Airport or City:

Trip Planner

Search our weather history database for the weather conditions in past years. The results will help you decide how hot, cold, wet, or windy it might be!

Date:

Astronomy

Mar. 10, 2014 Rise Set
Actual Time 7:31 AM CDT 7:10 PM CDT
Civil Twilight 7:02 AM CDT 7:38 PM CDT
Nautical Twilight 6:29 AM CDT 8:12 PM CDT
Astronomical Twilight 5:55 AM CDT 8:45 PM CDT
Moon 1:46 PM CDT (3/10) 3:51 AM CDT (3/10)
Length of Visible Light 12h 36m
Length of Day
11h 38m
Waxing Gibbous, 70% of the Moon is Illuminated
Mar 10
Waxing Gibbous
Mar 16
Full
Mar 23
Last Quarter
Mar 30
New
Apr 7
First Quarter

Hourly Weather History & Observations

Time (CDT) Temp. Windchill Dew Point Humidity Pressure Visibility Wind Dir Wind Speed Gust Speed Precip Events Conditions
12:54 AM 37.9 °F 30.0 °F 32.0 °F 79% 29.72 in 10.0 mi WSW 12.7 mph - N/A   Partly Cloudy
1:54 AM 39.0 °F 31.0 °F 32.0 °F 76% 29.70 in 10.0 mi WSW 13.8 mph - N/A   Clear
2:54 AM 37.9 °F 30.0 °F 32.0 °F 79% 29.68 in 10.0 mi SW 12.7 mph - N/A   Clear
3:54 AM 37.9 °F 29.6 °F 30.9 °F 76% 29.68 in 10.0 mi WSW 13.8 mph - N/A   Clear
4:54 AM 39.0 °F 31.8 °F 30.9 °F 73% 29.67 in 10.0 mi West 11.5 mph - N/A   Clear
5:54 AM 37.9 °F 31.5 °F 30.0 °F 73% 29.67 in 10.0 mi WSW 9.2 mph - N/A   Clear
6:54 AM 37.9 °F 30.0 °F 30.0 °F 73% 29.67 in 10.0 mi West 12.7 mph - N/A   Clear
7:54 AM 37.9 °F 30.0 °F 30.0 °F 73% 29.68 in 10.0 mi West 12.7 mph - N/A   Clear
8:54 AM 39.0 °F 31.0 °F 30.9 °F 73% 29.68 in 10.0 mi West 13.8 mph - N/A   Clear
9:54 AM 39.9 °F 32.1 °F 32.0 °F 73% 29.69 in 10.0 mi West 13.8 mph - N/A   Clear
10:54 AM 41.0 °F 32.8 °F 32.0 °F 70% 29.70 in 10.0 mi West 16.1 mph - N/A   Clear
11:54 AM 42.1 °F 34.2 °F 33.1 °F 70% 29.70 in 10.0 mi West 16.1 mph - N/A   Clear
12:54 PM 44.1 °F 36.8 °F 33.1 °F 65% 29.71 in 10.0 mi WNW 16.1 mph - N/A   Clear
1:54 PM 43.0 °F 35.7 °F 33.1 °F 68% 29.69 in 10.0 mi West 15.0 mph - N/A   Clear
2:54 PM 45.0 °F 38.9 °F 33.1 °F 63% 29.68 in 10.0 mi West 12.7 mph - N/A   Clear
3:54 PM 45.0 °F 39.7 °F 32.0 °F 60% 29.69 in 10.0 mi NW 10.4 mph - N/A   Clear
4:54 PM 45.0 °F 40.1 °F 32.0 °F 60% 29.68 in 10.0 mi NW 9.2 mph - N/A   Clear
5:54 PM 39.9 °F 33.9 °F 32.0 °F 73% 29.70 in 10.0 mi West 9.2 mph - N/A   Clear
6:54 PM 41.0 °F 35.2 °F 32.0 °F 70% 29.70 in 10.0 mi WNW 9.2 mph - N/A   Clear
7:54 PM 39.0 °F 32.3 °F 32.0 °F 76% 29.72 in 10.0 mi NW 10.4 mph - N/A   Clear
8:54 PM 39.0 °F 33.4 °F 32.0 °F 76% 29.73 in 10.0 mi WNW 8.1 mph - N/A   Clear
9:54 PM 37.0 °F 30.4 °F 32.0 °F 82% 29.74 in 10.0 mi West 9.2 mph - N/A   Clear
10:54 PM 37.9 °F 32.1 °F 32.0 °F 79% 29.74 in 10.0 mi WNW 8.1 mph - N/A   Clear
11:54 PM 36.0 °F 33.3 °F 30.9 °F 82% 29.72 in 10.0 mi West 3.5 mph - N/A   Partly Cloudy